Notices

What's New in latest Release from April 7th, 2021:

- Updated Glossary, including Speed of Maximum Gust, and Total Hourly Precipitation

- Updated national and regional climate services offices contacts and prices information

- Addition of station inventory lists for 1981-2010, 1971-2000, and 1961-1990 Normals.

If you haven't already, please take our survey and provide feedback about our website: https://eccc.sondage-survey.ca/f/LanguageSelection.aspx?s=442ca660-fcf1-47c0-95a9-59707d6fd709

Hourly Data Report for November 01, 2003

TORONTO CITY
ONTARIO

43°40'00.000" N
79°24'00.000" W
112.50 m
6158355
71508
XTO

Download Data

Hourly Data (November 2003)
Hourly Data Report for November 1, 2003
TIME
LST
Temp Definition
°C
Dew Point Definition
°C
Rel Hum Definition
%
Precip. Amount Definition
mm

Wind Dir Definition
10's deg

Wind Spd Definition
km/h
Visibility Definition
km
Stn Press Definition
kPa
Hmdx Definition


Wind Chill Definition


Weather Definition


00:00 16.3 14.0 86   LegendMM LegendMM LegendMM 100.23     LegendNANA
01:00 17.8 14.6 82   LegendMM LegendMM LegendMM 100.27     LegendNANA
02:00 16.8 12.1 74   LegendMM LegendMM LegendMM 100.37     LegendNANA
03:00 15.0 11.1 77   LegendMM LegendMM LegendMM 100.45     LegendNANA
04:00 14.0 10.2 78   LegendMM LegendMM LegendMM 100.49     LegendNANA
05:00 13.3 9.7 79   LegendMM LegendMM LegendMM 100.58     LegendNANA
06:00 11.8 7.9 77   LegendMM LegendMM LegendMM 100.66     LegendNANA
07:00 11.3 7.8 79   LegendMM LegendMM LegendMM 100.81     LegendNANA
08:00 11.4 6.6 72   LegendMM LegendMM LegendMM 100.89     LegendNANA
09:00 11.5 6.5 71   LegendMM LegendMM LegendMM 100.97     LegendNANA
10:00 11.7 6.7 71   LegendMM LegendMM LegendMM 101.06     LegendNANA
11:00 11.4 5.3 66   LegendMM LegendMM LegendMM 101.11     LegendNANA
12:00 11.7 5.0 63   LegendMM LegendMM LegendMM 101.10     LegendNANA
13:00 12.1 4.0 58   LegendMM LegendMM LegendMM 101.05     LegendNANA
14:00 12.0 4.1 58   LegendMM LegendMM LegendMM 101.03     LegendNANA
15:00 11.6 3.9 59   LegendMM LegendMM LegendMM 101.07     LegendNANA
16:00 11.5 3.7 59   LegendMM LegendMM LegendMM 101.09     LegendNANA
17:00 11.1 3.9 61   LegendMM LegendMM LegendMM 101.09     LegendNANA
18:00 10.9 4.1 63   LegendMM LegendMM LegendMM 101.15     LegendNANA
19:00 10.6 4.9 68   LegendMM LegendMM LegendMM 101.17     LegendNANA
20:00 10.4 5.0 69   LegendMM LegendMM LegendMM 101.18     LegendNANA
21:00 9.6 4.9 72   LegendMM LegendMM LegendMM 101.19     LegendNANA
22:00 9.8 5.0 72   LegendMM LegendMM LegendMM 101.19     LegendNANA
23:00 9.6 5.0 73   LegendMM LegendMM LegendMM 101.15     LegendNANA

Notes on Data Quality.

Legend

  • E = Estimated
  • M = Missing
  • NA = Not Available*
  • [empty] = Indicates an unobserved value
Date modified: